Previsão horária em Abasolo

Hoje, 12 Abril, Segunda-feira

Tempo Temperatura Precipitação Vento Pressão Humidade
00:00 +24°C° 0 mm 1 m/s 749 mmHg 93%
01:00 +24°C° 0 mm 1 m/s 748 mmHg 94%
02:00 +24°C° 0 mm 1 m/s 748 mmHg 96%
03:00 +24°C° 0 mm 1 m/s 748 mmHg 96%
04:00 +23°C° 0 mm 1 m/s 748 mmHg 96%
05:00 +23°C° 0 mm 2 m/s 748 mmHg 97%
06:00 +25°C° 0 mm 2 m/s 749 mmHg 86%
07:00 +27°C° 0 mm 2 m/s 749 mmHg 75%
08:00 +29°C° 0 mm 3 m/s 749 mmHg 65%
09:00 +33°C° 0 mm 3 m/s 749 mmHg 56%
10:00 +35°C° 0 mm 4 m/s 748 mmHg 47%
11:00 +38°C° 0 mm 4 m/s 748 mmHg 38%
12:00 +40°C° 0 mm 5 m/s 747 mmHg 36%
13:00 +41°C° 0 mm 6 m/s 746 mmHg 33%
14:00 +41°C° 0 mm 7 m/s 745 mmHg 31%
15:00 +39°C° 0 mm 7 m/s 746 mmHg 38%
16:00 +35°C° 0 mm 7 m/s 746 mmHg 46%
17:00 +33°C° 0 mm 8 m/s 746 mmHg 54%
18:00 +30°C° 0 mm 7 m/s 747 mmHg 64%
19:00 +28°C° 0 mm 6 m/s 748 mmHg 73%
20:00 +26°C° 0 mm 5 m/s 748 mmHg 83%
21:00 +26°C° 0 mm 4 m/s 749 mmHg 83%
22:00 +26°C° 0 mm 3 m/s 749 mmHg 83%
23:00 +26°C° 0 mm 3 m/s 749 mmHg 83%

Amanhã, 13 Abril, Terça-feira

Tempo Temperatura Precipitação Vento Pressão Humidade
00:00 +25°C° 0 mm 2 m/s 749 mmHg 86%
01:00 +25°C° 0 mm 2 m/s 748 mmHg 88%
02:00 +24°C° 0 mm 1 m/s 748 mmHg 91%
03:00 +24°C° 0 mm 2 m/s 748 mmHg 92%
04:00 +24°C° 0 mm 2 m/s 749 mmHg 94%
05:00 +24°C° 0 mm 2 m/s 749 mmHg 95%
06:00 +25°C° 0 mm 2 m/s 750 mmHg 87%
07:00 +27°C° 0 mm 2 m/s 751 mmHg 79%
08:00 +29°C° 0 mm 2 m/s 752 mmHg 71%
09:00 +31°C° 0 mm 2 m/s 751 mmHg 60%
10:00 +35°C° 0 mm 2 m/s 751 mmHg 50%
11:00 +37°C° 0 mm 2 m/s 750 mmHg 40%
12:00 +38°C° 0 mm 3 m/s 750 mmHg 38%
13:00 +40°C° 0 mm 4 m/s 749 mmHg 35%
14:00 +41°C° 0 mm 6 m/s 748 mmHg 33%
15:00 +38°C° 0 mm 6 m/s 749 mmHg 41%
16:00 +35°C° 0 mm 6 m/s 749 mmHg 49%
17:00 +33°C° 0 mm 6 m/s 749 mmHg 57%
18:00 +30°C° 0 mm 5 m/s 750 mmHg 69%
19:00 +28°C° 0 mm 4 m/s 751 mmHg 80%
20:00 +27°C° 0 mm 3 m/s 751 mmHg 91%
21:00 +26°C° 0 mm 3 m/s 752 mmHg 92%
22:00 +26°C° 0 mm 2 m/s 752 mmHg 93%
23:00 +26°C° 0 mm 1 m/s 752 mmHg 94%

Depois de amanhã, 14 Abril, Quarta-feira

Tempo Temperatura Precipitação Vento Pressão Humidade
00:00 +26°C° 0 mm 1 m/s 752 mmHg 94%
01:00 +26°C° 0 mm 1 m/s 751 mmHg 93%
02:00 +24°C° 0 mm 0 m/s 751 mmHg 93%
03:00 +26°C° 0 mm 1 m/s 751 mmHg 93%
04:00 +25°C° 0 mm 1 m/s 752 mmHg 93%
05:00 +25°C° 0 mm 2 m/s 752 mmHg 93%
06:00 +27°C° 0 mm 2 m/s 752 mmHg 83%
07:00 +29°C° 0 mm 2 m/s 752 mmHg 73%
08:00 +31°C° 0 mm 3 m/s 753 mmHg 64%
09:00 +34°C° 0 mm 2 m/s 752 mmHg 53%
10:00 +37°C° 0 mm 2 m/s 751 mmHg 43%
11:00 +39°C° 0 mm 2 m/s 751 mmHg 33%
12:00 +41°C° 0 mm 4 m/s 750 mmHg 32%
13:00 +42°C° 0 mm 5 m/s 749 mmHg 31%
14:00 +44°C° 0 mm 7 m/s 748 mmHg 30%
15:00 +40°C° 0 mm 7 m/s 748 mmHg 37%
16:00 +36°C° 0 mm 7 m/s 748 mmHg 45%
17:00 +34°C° 0 mm 7 m/s 748 mmHg 53%
18:00 +32°C° 0 mm 6 m/s 749 mmHg 65%
19:00 +29°C° 0 mm 5 m/s 749 mmHg 77%
20:00 +27°C° 0 mm 4 m/s 750 mmHg 88%
21:00 +27°C° 0 mm 3 m/s 750 mmHg 89%
22:00 +27°C° 0 mm 3 m/s 750 mmHg 89%
23:00 +27°C° 0 mm 2 m/s 751 mmHg 90%

15 Abril, Quinta-feira

Tempo Temperatura Precipitação Vento Pressão Humidade
00:00 +26°C° 0 mm 2 m/s 750 mmHg 90%
01:00 +26°C° 0 mm 1 m/s 750 mmHg 91%
02:00 +26°C° 0 mm 1 m/s 750 mmHg 92%
03:00 +25°C° 0 mm 1 m/s 750 mmHg 93%
04:00 +25°C° 0 mm 1 m/s 750 mmHg 93%
05:00 +25°C° 0 mm 1 m/s 750 mmHg 94%
06:00 +27°C° 0 mm 2 m/s 750 mmHg 84%
07:00 +29°C° 0 mm 2 m/s 751 mmHg 73%
08:00 +31°C° 0 mm 3 m/s 751 mmHg 62%
09:00 +34°C° 0 mm 3 m/s 750 mmHg 54%
10:00 +36°C° 0 mm 3 m/s 750 mmHg 45%
11:00 +38°C° 0 mm 3 m/s 749 mmHg 37%
12:00 +40°C° 0 mm 4 m/s 748 mmHg 35%
13:00 +41°C° 0 mm 5 m/s 748 mmHg 33%
14:00 +42°C° 0 mm 6 m/s 747 mmHg 32%
15:00 +39°C° 0 mm 7 m/s 747 mmHg 40%
16:00 +36°C° 0 mm 7 m/s 747 mmHg 48%
17:00 +33°C° 0 mm 7 m/s 747 mmHg 56%
18:00 +30°C° 0 mm 6 m/s 747 mmHg 66%
19:00 +28°C° 0 mm 5 m/s 748 mmHg 77%
20:00 +27°C° 0 mm 4 m/s 748 mmHg 87%
21:00 +26°C° 0 mm 3 m/s 748 mmHg 89%
22:00 +26°C° 0 mm 3 m/s 748 mmHg 91%
23:00 +26°C° 0 mm 2 m/s 748 mmHg 93%

16 Abril, Sexta-feira

Tempo Temperatura Precipitação Vento Pressão Humidade
00:00 +26°C° 0 mm 2 m/s 748 mmHg 94%
01:00 +26°C° 0 mm 2 m/s 747 mmHg 94%
02:00 +25°C° 0 mm 2 m/s 747 mmHg 95%
03:00 +25°C° 0 mm 2 m/s 747 mmHg 94%
04:00 +25°C° 0 mm 1 m/s 747 mmHg 94%
05:00 +24°C° 0 mm 1 m/s 747 mmHg 94%
06:00 +27°C° 0 mm 1 m/s 747 mmHg 82%
07:00 +29°C° 0 mm 1 m/s 748 mmHg 70%
08:00 +31°C° 0 mm 1 m/s 748 mmHg 58%
09:00 +34°C° 0 mm 1 m/s 747 mmHg 49%
10:00 +36°C° 0 mm 1 m/s 747 mmHg 40%
11:00 +40°C° 0 mm 1 m/s 746 mmHg 32%
12:00 +41°C° 0 mm 2 m/s 745 mmHg 28%
13:00 +43°C° 0 mm 3 m/s 744 mmHg 25%
14:00 +44°C° 0 mm 4 m/s 743 mmHg 21%
15:00 +41°C° 0 mm 5 m/s 744 mmHg 32%
16:00 +38°C° 0 mm 6 m/s 744 mmHg 42%
17:00 +34°C° 0 mm 7 m/s 744 mmHg 53%
18:00 +32°C° 0 mm 5 m/s 745 mmHg 64%
19:00 +29°C° 0 mm 4 m/s 746 mmHg 74%
20:00 +27°C° 0 mm 2 m/s 747 mmHg 85%
21:00 +27°C° 0 mm 2 m/s 748 mmHg 86%
22:00 +26°C° 0 mm 2 m/s 748 mmHg 88%
23:00 +26°C° 0 mm 1 m/s 749 mmHg 89%

17 Abril, Sábado

Tempo Temperatura Precipitação Vento Pressão Humidade
00:00 +26°C° 0 mm 1 m/s 749 mmHg 89%
01:00 +26°C° 0 mm 2 m/s 749 mmHg 89%
02:00 +26°C° 0 mm 2 m/s 749 mmHg 88%
03:00 +26°C° 0.1 mm 2 m/s 749 mmHg 89%
04:00 +26°C° 0.1 mm 3 m/s 750 mmHg 90%
05:00 +25°C° 0.1 mm 3 m/s 750 mmHg 91%
06:00 +27°C° 0.1 mm 4 m/s 751 mmHg 84%
07:00 +28°C° 0.1 mm 5 m/s 752 mmHg 77%
08:00 +29°C° 0.1 mm 7 m/s 753 mmHg 70%
09:00 +28°C° 0.9 mm 7 m/s 753 mmHg 72%
10:00 +27°C° 0.9 mm 8 m/s 753 mmHg 74%
11:00 +26°C° 0.9 mm 8 m/s 754 mmHg 76%
12:00 +24°C° 0.5 mm 7 m/s 754 mmHg 73%
13:00 +22°C° 0.5 mm 7 m/s 754 mmHg 70%
14:00 +20°C° 0.5 mm 6 m/s 754 mmHg 67%
15:00 +20°C° 0.1 mm 5 m/s 755 mmHg 65%
16:00 +20°C° 0.1 mm 5 m/s 755 mmHg 63%
17:00 +20°C° 0.1 mm 4 m/s 755 mmHg 61%
18:00 +20°C° 0.1 mm 4 m/s 755 mmHg 62%
19:00 +20°C° 0.1 mm 3 m/s 756 mmHg 63%
20:00 +19°C° 0.1 mm 3 m/s 757 mmHg 64%
21:00 +19°C° 0 mm 3 m/s 757 mmHg 67%
22:00 +19°C° 0 mm 3 m/s 757 mmHg 69%
23:00 +19°C° 0 mm 3 m/s 757 mmHg 72%
Mostrar mais